ASA2379 KBOI-KPDX

Flight info

Callsign ASA2379
Flight time 0h 54m
Altitude 36000
Route SAILL BUEEL JOTBA HHOOD6
Aircraft B738/M-SDE2E3FGHIRWXY/LB1

Departure

Time 2026-05-08 04:13
Airport Boise Air Terminal/Gowen Field (KBOI)

Arrival

Time 2026-05-08 05:08
Airport Portland International Airport (KPDX)
Time Latitude Longitude Altitude Speed Heading
2026-05-08 03:37 43.56675 -116.21928 2880 ft 0 kts 25°
2026-05-08 03:59 43.56668 -116.21933 2880 ft 2 kts 26°
2026-05-08 03:59 43.56653 -116.21943 2880 ft 2 kts 25°
2026-05-08 04:00 43.56638 -116.21952 2880 ft 2 kts 19°
2026-05-08 04:00 43.56622 -116.21954 2880 ft 2 kts 310°
2026-05-08 04:00 43.56618 -116.21947 2880 ft 0 kts 292°
2026-05-08 04:04 43.56618 -116.21948 2880 ft 1 kts 292°
2026-05-08 04:04 43.56624 -116.21968 2880 ft 4 kts 292°
2026-05-08 04:04 43.56640 -116.22019 2880 ft 7 kts 288°
2026-05-08 04:05 43.56641 -116.22051 2880 ft 0 kts 260°
2026-05-08 04:07 43.56634 -116.22066 2880 ft 3 kts 233°
2026-05-08 04:07 43.56605 -116.22077 2880 ft 6 kts 166°
2026-05-08 04:07 43.56574 -116.22027 2880 ft 8 kts 116°
2026-05-08 04:08 43.56549 -116.21952 2880 ft 9 kts 113°
2026-05-08 04:08 43.56520 -116.21867 2880 ft 10 kts 115°
2026-05-08 04:08 43.56489 -116.21776 2880 ft 9 kts 115°
2026-05-08 04:08 43.56459 -116.21690 2880 ft 10 kts 115°
2026-05-08 04:09 43.56427 -116.21595 2880 ft 12 kts 115°
2026-05-08 04:09 43.56392 -116.21493 2880 ft 12 kts 115°
2026-05-08 04:09 43.56357 -116.21393 2881 ft 12 kts 115°
2026-05-08 04:09 43.56322 -116.21290 2881 ft 12 kts 115°
2026-05-08 04:10 43.56285 -116.21179 2881 ft 13 kts 115°
2026-05-08 04:10 43.56245 -116.21064 2881 ft 13 kts 115°
2026-05-08 04:10 43.56207 -116.20952 2881 ft 13 kts 115°
2026-05-08 04:10 43.56171 -116.20869 2881 ft 7 kts 143°
2026-05-08 04:11 43.56124 -116.20875 2881 ft 7 kts 205°
2026-05-08 04:11 43.56080 -116.20905 2881 ft 8 kts 206°
2026-05-08 04:11 43.56024 -116.20942 2880 ft 10 kts 205°
2026-05-08 04:11 43.55959 -116.20984 2880 ft 11 kts 205°
2026-05-08 04:12 43.55915 -116.21056 2880 ft 10 kts 264°
2026-05-08 04:12 43.55923 -116.21098 2880 ft 0 kts 294°
2026-05-08 04:12 43.55924 -116.21100 2880 ft 3 kts 294°
2026-05-08 04:12 43.55983 -116.21272 2880 ft 41 kts 295°
2026-05-08 04:13 43.56222 -116.21971 2879 ft 119 kts 295°
2026-05-08 04:13 43.56670 -116.23290 2915 ft 180 kts 295°
2026-05-08 04:13 43.57236 -116.24941 3523 ft 198 kts 295°
2026-05-08 04:13 43.57816 -116.26640 4581 ft 190 kts 295°
2026-05-08 04:14 43.58386 -116.28317 5397 ft 200 kts 295°
2026-05-08 04:14 43.59010 -116.30159 5638 ft 224 kts 295°
2026-05-08 04:14 43.59617 -116.32248 5875 ft 244 kts 285°
2026-05-08 04:14 43.60023 -116.34571 6334 ft 252 kts 282°
2026-05-08 04:15 43.60390 -116.36983 6724 ft 266 kts 282°
2026-05-08 04:15 43.60780 -116.39550 7231 ft 279 kts 282°
2026-05-08 04:15 43.61189 -116.42184 8076 ft 281 kts 282°
2026-05-08 04:15 43.61608 -116.44827 8975 ft 282 kts 282°
2026-05-08 04:16 43.62037 -116.47492 9787 ft 286 kts 282°
2026-05-08 04:16 43.62479 -116.50202 10455 ft 297 kts 282°
2026-05-08 04:16 43.62953 -116.53100 10647 ft 322 kts 283°
2026-05-08 04:16 43.63462 -116.56189 11091 ft 337 kts 283°
2026-05-08 04:17 43.63988 -116.59376 11806 ft 342 kts 283°
2026-05-08 04:17 43.64518 -116.62590 12599 ft 345 kts 283°
2026-05-08 04:17 43.65047 -116.65793 13377 ft 349 kts 283°
2026-05-08 04:17 43.65595 -116.69116 14166 ft 353 kts 283°
2026-05-08 04:18 43.66142 -116.72437 14944 ft 357 kts 283°
2026-05-08 04:18 43.66687 -116.75760 15626 ft 361 kts 283°
2026-05-08 04:18 43.67244 -116.79156 15962 ft 364 kts 283°
2026-05-08 04:18 43.67801 -116.82557 16154 ft 365 kts 282°
2026-05-08 04:19 43.68367 -116.86021 16712 ft 372 kts 282°
2026-05-08 04:19 43.68935 -116.89505 17549 ft 372 kts 282°
2026-05-08 04:19 43.69503 -116.93001 18311 ft 374 kts 282°
2026-05-08 04:19 43.70077 -116.96532 18973 ft 379 kts 282°
2026-05-08 04:20 43.70656 -117.00106 19627 ft 383 kts 282°
2026-05-08 04:20 43.71241 -117.03723 20266 ft 387 kts 282°
2026-05-08 04:20 43.71830 -117.07374 20901 ft 391 kts 282°
2026-05-08 04:20 43.72506 -117.11020 21491 ft 395 kts 289°
2026-05-08 04:21 43.73538 -117.14558 22049 ft 399 kts 293°
2026-05-08 04:21 43.74667 -117.18076 22636 ft 402 kts 294°
2026-05-08 04:21 43.75819 -117.21616 23168 ft 406 kts 294°
2026-05-08 04:21 43.76978 -117.25197 23666 ft 410 kts 294°
2026-05-08 04:22 43.78136 -117.28818 24156 ft 414 kts 294°
2026-05-08 04:22 43.79298 -117.32487 24656 ft 417 kts 293°
2026-05-08 04:22 43.80460 -117.36181 25147 ft 420 kts 293°
2026-05-08 04:22 43.81625 -117.39899 25664 ft 422 kts 293°
2026-05-08 04:23 43.82778 -117.43586 26138 ft 424 kts 293°
2026-05-08 04:23 43.83954 -117.47351 26560 ft 428 kts 293°
2026-05-08 04:23 43.85140 -117.51151 26942 ft 432 kts 293°
2026-05-08 04:23 43.86333 -117.54979 27370 ft 434 kts 293°
2026-05-08 04:24 43.87539 -117.58824 27789 ft 436 kts 295°
2026-05-08 04:24 43.88986 -117.62539 27985 ft 439 kts 301°
2026-05-08 04:24 43.90614 -117.66124 27991 ft 439 kts 303°
2026-05-08 04:24 43.92280 -117.69661 27997 ft 439 kts 303°
2026-05-08 04:25 43.95642 -117.76763 28010 ft 441 kts 303°
2026-05-08 04:25 43.98981 -117.83919 27997 ft 442 kts 302°
2026-05-08 04:26 44.00642 -117.87515 27997 ft 442 kts 302°
2026-05-08 04:26 44.02298 -117.91116 28003 ft 442 kts 302°
2026-05-08 04:26 44.05604 -117.98332 27997 ft 442 kts 302°
2026-05-08 04:27 44.08897 -118.05541 28003 ft 442 kts 302°
2026-05-08 04:27 44.10543 -118.09151 27999 ft 442 kts 302°
2026-05-08 04:27 44.12191 -118.12768 28000 ft 442 kts 302°
2026-05-08 04:28 44.13836 -118.16384 28000 ft 442 kts 302°
2026-05-08 04:28 44.15480 -118.20001 28003 ft 442 kts 302°
2026-05-08 04:28 44.18765 -118.27242 28000 ft 442 kts 302°
2026-05-08 04:29 44.20402 -118.30857 27999 ft 442 kts 302°
2026-05-08 04:29 44.22021 -118.34438 28004 ft 442 kts 302°
2026-05-08 04:29 44.25297 -118.41695 28003 ft 442 kts 302°
2026-05-08 04:30 44.26934 -118.45328 27997 ft 443 kts 302°
2026-05-08 04:30 44.28572 -118.48968 28001 ft 443 kts 302°
2026-05-08 04:30 44.31811 -118.56181 27840 ft 427 kts 302°
2026-05-08 04:31 44.33376 -118.59672 27409 ft 422 kts 302°
2026-05-08 04:31 44.34404 -118.61967 26997 ft 421 kts 302°
2026-05-08 04:31 44.35956 -118.65437 26364 ft 420 kts 302°
2026-05-08 04:31 44.37500 -118.68892 25839 ft 417 kts 302°
2026-05-08 04:32 44.39029 -118.72317 25353 ft 412 kts 302°
2026-05-08 04:32 44.40536 -118.75698 24874 ft 408 kts 302°
2026-05-08 04:32 44.42028 -118.79049 24369 ft 404 kts 302°
2026-05-08 04:32 44.43507 -118.82375 24088 ft 404 kts 302°
2026-05-08 04:33 44.44996 -118.85726 24036 ft 405 kts 302°
2026-05-08 04:33 44.46478 -118.89067 24003 ft 403 kts 302°
2026-05-08 04:33 44.47954 -118.92399 24003 ft 403 kts 301°
2026-05-08 04:33 44.49435 -118.95742 24002 ft 405 kts 301°
2026-05-08 04:34 44.50916 -118.99092 23997 ft 404 kts 301°
2026-05-08 04:34 44.52392 -119.02436 23999 ft 403 kts 301°
2026-05-08 04:34 44.53866 -119.05775 24001 ft 403 kts 301°
2026-05-08 04:34 44.55339 -119.09120 24000 ft 404 kts 301°
2026-05-08 04:35 44.56817 -119.12477 24004 ft 405 kts 301°
2026-05-08 04:35 44.58283 -119.15813 24006 ft 407 kts 301°
2026-05-08 04:35 44.59770 -119.19200 24005 ft 408 kts 301°
2026-05-08 04:35 44.61261 -119.22600 24002 ft 409 kts 301°
2026-05-08 04:36 44.62752 -119.26003 24000 ft 410 kts 301°
2026-05-08 04:36 44.64244 -119.29415 23999 ft 410 kts 301°
2026-05-08 04:36 44.65734 -119.32824 24001 ft 409 kts 301°
2026-05-08 04:36 44.67223 -119.36235 24001 ft 410 kts 301°
2026-05-08 04:37 44.68713 -119.39654 24007 ft 410 kts 301°
2026-05-08 04:37 44.70201 -119.43072 24009 ft 409 kts 301°
2026-05-08 04:37 44.71685 -119.46484 23995 ft 409 kts 301°
2026-05-08 04:37 44.73167 -119.49895 23999 ft 408 kts 301°
2026-05-08 04:38 44.74646 -119.53303 24010 ft 408 kts 301°
2026-05-08 04:38 44.76124 -119.56714 24002 ft 407 kts 301°
2026-05-08 04:38 44.77594 -119.60111 23998 ft 406 kts 301°
2026-05-08 04:38 44.79062 -119.63507 23998 ft 406 kts 301°
2026-05-08 04:39 44.80508 -119.66855 24000 ft 405 kts 301°
2026-05-08 04:39 44.81970 -119.70247 24002 ft 405 kts 301°
2026-05-08 04:39 44.83431 -119.73637 24003 ft 405 kts 301°
2026-05-08 04:39 44.84889 -119.77026 24000 ft 404 kts 301°
2026-05-08 04:40 44.86345 -119.80415 24000 ft 404 kts 301°
2026-05-08 04:40 44.87801 -119.83808 24000 ft 404 kts 301°
2026-05-08 04:40 44.89256 -119.87201 24001 ft 404 kts 301°
2026-05-08 04:40 44.90713 -119.90604 24009 ft 404 kts 301°
2026-05-08 04:41 44.92167 -119.94003 23999 ft 405 kts 301°
2026-05-08 04:41 44.93621 -119.97409 24001 ft 405 kts 301°
2026-05-08 04:41 44.95077 -120.00820 24002 ft 406 kts 301°
2026-05-08 04:41 44.96534 -120.04240 24004 ft 407 kts 301°
2026-05-08 04:42 44.97994 -120.07671 24003 ft 407 kts 301°
2026-05-08 04:42 44.99454 -120.11105 24001 ft 408 kts 301°
2026-05-08 04:42 45.00912 -120.14540 24002 ft 408 kts 301°
2026-05-08 04:42 45.02371 -120.17980 24000 ft 408 kts 301°
2026-05-08 04:43 45.03811 -120.21380 24002 ft 407 kts 301°
2026-05-08 04:43 45.05267 -120.24821 23999 ft 406 kts 301°
2026-05-08 04:43 45.06715 -120.28249 24001 ft 405 kts 301°
2026-05-08 04:43 45.08159 -120.31671 24001 ft 404 kts 301°
2026-05-08 04:44 45.09602 -120.35094 23998 ft 404 kts 301°
2026-05-08 04:44 45.11037 -120.38504 23999 ft 403 kts 301°
2026-05-08 04:44 45.12470 -120.41912 24001 ft 402 kts 300°
2026-05-08 04:44 45.13883 -120.45275 24006 ft 402 kts 300°
2026-05-08 04:45 45.15310 -120.48678 24003 ft 401 kts 300°
2026-05-08 04:45 45.16737 -120.52083 23997 ft 401 kts 300°
2026-05-08 04:45 45.18097 -120.55466 23981 ft 388 kts 299°
2026-05-08 04:45 45.19366 -120.58752 23980 ft 372 kts 298°
2026-05-08 04:46 45.20572 -120.61914 23983 ft 357 kts 298°
2026-05-08 04:46 45.21732 -120.64958 23980 ft 343 kts 298°
2026-05-08 04:46 45.22849 -120.67885 23933 ft 331 kts 298°
2026-05-08 04:46 45.23921 -120.70685 23777 ft 318 kts 298°
2026-05-08 04:47 45.24963 -120.73404 23445 ft 310 kts 298°
2026-05-08 04:47 45.26000 -120.76109 22641 ft 318 kts 298°
2026-05-08 04:47 45.27088 -120.78947 21582 ft 334 kts 298°
2026-05-08 04:47 45.28205 -120.81865 20880 ft 336 kts 298°
2026-05-08 04:48 45.29316 -120.84765 20348 ft 332 kts 298°
2026-05-08 04:48 45.30409 -120.87624 19832 ft 328 kts 298°
2026-05-08 04:48 45.31491 -120.90455 19303 ft 324 kts 298°
2026-05-08 04:48 45.32556 -120.93245 18901 ft 319 kts 298°
2026-05-08 04:49 45.33603 -120.95992 18543 ft 314 kts 298°
2026-05-08 04:49 45.34625 -120.98674 18210 ft 312 kts 298°
2026-05-08 04:49 45.35662 -121.01398 17880 ft 315 kts 298°
2026-05-08 04:49 45.36725 -121.04195 17544 ft 321 kts 298°
2026-05-08 04:50 45.37773 -121.06955 17199 ft 323 kts 298°
2026-05-08 04:50 45.38787 -121.09820 16821 ft 324 kts 292°
2026-05-08 04:50 45.39551 -121.12826 16412 ft 323 kts 288°
2026-05-08 04:50 45.40225 -121.15882 15968 ft 323 kts 287°
2026-05-08 04:51 45.40888 -121.18934 15570 ft 322 kts 287°
2026-05-08 04:51 45.41562 -121.21974 15170 ft 321 kts 288°
2026-05-08 04:51 45.42246 -121.24993 14785 ft 320 kts 288°
2026-05-08 04:51 45.42935 -121.27997 14395 ft 319 kts 288°
2026-05-08 04:52 45.43627 -121.30986 14009 ft 314 kts 288°
2026-05-08 04:52 45.44301 -121.33891 13620 ft 305 kts 288°
2026-05-08 04:52 45.44955 -121.36714 13258 ft 296 kts 288°
2026-05-08 04:52 45.45586 -121.39436 12912 ft 290 kts 288°
2026-05-08 04:53 45.46212 -121.42145 12643 ft 286 kts 288°
2026-05-08 04:53 45.46835 -121.44846 12377 ft 289 kts 288°
2026-05-08 04:53 45.47468 -121.47590 12113 ft 291 kts 288°
2026-05-08 04:53 45.48094 -121.50307 11824 ft 284 kts 288°
2026-05-08 04:54 45.48700 -121.52942 11549 ft 275 kts 288°
2026-05-08 04:54 45.49284 -121.55486 11295 ft 267 kts 288°
2026-05-08 04:54 45.49866 -121.58019 11069 ft 276 kts 288°
2026-05-08 04:54 45.50477 -121.60685 10814 ft 288 kts 288°
2026-05-08 04:55 45.51103 -121.63418 10535 ft 292 kts 288°
2026-05-08 04:55 45.51732 -121.66168 10245 ft 291 kts 288°
2026-05-08 04:55 45.52351 -121.68877 10051 ft 284 kts 288°
2026-05-08 04:55 45.52938 -121.71548 9786 ft 280 kts 283°
2026-05-08 04:56 45.53195 -121.74286 9541 ft 276 kts 274°
2026-05-08 04:56 45.53283 -121.76972 9286 ft 273 kts 272°
2026-05-08 04:56 45.53351 -121.79672 9050 ft 272 kts 272°
2026-05-08 04:56 45.53430 -121.82368 8857 ft 272 kts 272°
2026-05-08 04:57 45.53525 -121.85085 8586 ft 276 kts 273°
2026-05-08 04:57 45.53630 -121.87817 8305 ft 275 kts 273°
2026-05-08 04:57 45.53738 -121.90526 8013 ft 273 kts 273°
2026-05-08 04:57 45.53846 -121.93215 7738 ft 270 kts 273°
2026-05-08 04:58 45.53953 -121.95884 7450 ft 269 kts 273°
2026-05-08 04:58 45.54059 -121.98536 7175 ft 267 kts 273°
2026-05-08 04:58 45.54164 -122.01174 6892 ft 265 kts 273°
2026-05-08 04:58 45.54097 -122.03780 6607 ft 263 kts 255°
2026-05-08 04:59 45.53335 -122.06092 6465 ft 255 kts 237°
2026-05-08 04:59 45.52333 -122.08113 6355 ft 244 kts 234°
2026-05-08 04:59 45.51362 -122.09987 6194 ft 232 kts 234°
2026-05-08 04:59 45.50431 -122.11805 6042 ft 221 kts 234°
2026-05-08 05:00 45.49553 -122.13542 5907 ft 210 kts 234°
2026-05-08 05:00 45.48720 -122.15198 5778 ft 200 kts 234°
2026-05-08 05:00 45.47933 -122.16768 5661 ft 189 kts 235°
2026-05-08 05:00 45.47335 -122.18370 5455 ft 183 kts 264°
2026-05-08 05:01 45.47467 -122.20103 5373 ft 178 kts 278°
2026-05-08 05:01 45.47618 -122.21915 5079 ft 181 kts 276°
2026-05-08 05:01 45.47755 -122.23708 4766 ft 184 kts 276°
2026-05-08 05:01 45.47897 -122.25506 4490 ft 182 kts 276°
2026-05-08 05:02 45.48042 -122.27280 4215 ft 179 kts 276°
2026-05-08 05:02 45.48186 -122.29033 3932 ft 177 kts 276°
2026-05-08 05:02 45.48335 -122.30756 3666 ft 173 kts 280°
2026-05-08 05:02 45.48802 -122.32286 3480 ft 165 kts 301°
2026-05-08 05:03 45.49359 -122.33669 3305 ft 159 kts 298°
2026-05-08 05:03 45.49890 -122.35025 3160 ft 159 kts 298°
2026-05-08 05:03 45.50430 -122.36399 3020 ft 159 kts 299°
2026-05-08 05:03 45.50978 -122.37794 2954 ft 160 kts 298°
2026-05-08 05:04 45.51514 -122.39165 2925 ft 159 kts 298°
2026-05-08 05:04 45.52062 -122.40567 2620 ft 169 kts 298°
2026-05-08 05:04 45.52629 -122.42017 2286 ft 165 kts 298°
2026-05-08 05:04 45.53174 -122.43406 2049 ft 155 kts 298°
2026-05-08 05:05 45.53682 -122.44706 1933 ft 146 kts 298°
2026-05-08 05:05 45.54168 -122.45950 1968 ft 144 kts 298°
2026-05-08 05:05 45.54659 -122.47242 1792 ft 152 kts 298°
2026-05-08 05:05 45.55148 -122.48568 1479 ft 147 kts 297°
2026-05-08 05:06 45.55621 -122.49812 1213 ft 139 kts 298°
2026-05-08 05:06 45.56085 -122.51000 984 ft 137 kts 299°
2026-05-08 05:06 45.56559 -122.52185 790 ft 138 kts 300°
2026-05-08 05:06 45.57044 -122.53374 596 ft 138 kts 300°
2026-05-08 05:07 45.57521 -122.54556 433 ft 137 kts 300°
2026-05-08 05:07 45.57995 -122.55751 238 ft 139 kts 298°
2026-05-08 05:07 45.58458 -122.56941 86 ft 137 kts 299°
2026-05-08 05:07 45.58895 -122.58067 40 ft 115 kts 298°
2026-05-08 05:08 45.59224 -122.58903 40 ft 81 kts 299°
2026-05-08 05:08 45.59419 -122.59405 38 ft 38 kts 297°
2026-05-08 05:08 45.59414 -122.59592 34 ft 18 kts 213°
2026-05-08 05:08 45.59392 -122.59616 33 ft 0 kts 217°
2026-05-08 05:10 45.59387 -122.59621 33 ft 4 kts 217°
2026-05-08 05:10 45.59313 -122.59739 30 ft 11 kts 232°
2026-05-08 05:10 45.59251 -122.59815 29 ft 12 kts 209°
2026-05-08 05:11 45.59176 -122.59872 29 ft 12 kts 202°
2026-05-08 05:11 45.59132 -122.59873 30 ft 6 kts 156°
2026-05-08 05:11 45.59101 -122.59832 30 ft 6 kts 128°
2026-05-08 05:11 45.59080 -122.59781 31 ft 6 kts 120°
2026-05-08 05:12 45.59059 -122.59729 30 ft 6 kts 120°
2026-05-08 05:12 45.59022 -122.59709 31 ft 6 kts 203°
2026-05-08 05:12 45.58994 -122.59732 32 ft 3 kts 209°
2026-05-08 05:12 45.58989 -122.59736 31 ft 0 kts 209°